Location: Gera
(50.8755°N, 12.0833°E)
Time: 03:37:34
(UTC+00:00)

Daily predictions for brighter satellites

Satellite Brightness Start Highest point End
(mag) Time Altitude Azimuth Time Altitude Azimuth Time Altitude Azimuth
CZ-4C R/B 3.8 00:06:34 31° NNW 00:07:06 31° NNW 00:13:02 10° NE
USA 234 3.8 00:01:20 10° E 00:07:40 55° N 00:07:47 55° N
Cosmos 2369 Rocket 3.8 00:10:56 29° NNW 00:10:56 29° NNW 00:14:27 10° NNE
ADEOS II 3.8 00:40:36 10° NE 00:44:28 26° E 00:44:28 26° E
BREEZE-M DEB (TANK) 4.5 00:54:39 79° SE 00:54:39 79° SE 01:13:56 10° E
Cosmos 2227 Rocket 3.8 00:51:43 10° NNW 00:54:07 26° NNW 00:54:07 26° NNW
Cosmos 2181 Rocket 4.3 00:58:47 64° NNE 00:58:47 64° NNE 01:04:04 10° NNE
SL-16 R/B 3.4 01:15:09 38° NW 01:15:09 38° NW 01:19:03 10° NNW
USA 267 4.1 01:07:19 10° ENE 01:13:06 35° SE 01:13:06 35° SE
SJ 16-02 4.0 01:16:33 10° N 01:19:37 18° NE 01:22:40 10° E
CZ-2D R/B 2.7 01:14:48 10° NNE 01:18:48 51° N 01:18:48 51° N
ATLAS 2AS CENTAUR R/B 4.3 01:13:47 10° NW 01:20:51 35° NNE 01:27:29 10° E
NOSS 2-2 (D) 4.4 01:22:27 75° NNE 01:22:37 75° NE 01:29:58 10° SE
Resurs 1-4 Rocket 2.7 01:21:58 10° N 01:25:56 50° N 01:25:56 50° N
Lacrosse 5 3.1 01:29:27 34° ESE 01:29:27 34° ESE 01:32:58 10° ENE
ATLAS 5 CENTAUR R/B 2.9 01:30:41 37° N 01:30:41 37° N 01:34:09 10° NE
Cosmos 2369 4.5 01:29:32 43° ESE 01:29:50 43° ESE 01:35:14 10° NE
NPP 4.0 01:25:47 10° NNE 01:30:13 59° N 01:30:13 59° N
SL-08 R/B 3.9 01:37:45 54° NE 01:37:45 54° NE 01:41:44 10° N
Cosmos 1818 3.9 01:44:09 59° NNW 01:44:09 59° NNW 01:49:10 10° NE
Cosmos 2297 Rocket 4.4 01:38:39 10° NW 01:39:21 13° NW 01:39:21 13° NW
USA 234 3.2 01:43:54 10° ESE 01:50:27 87° NNE 01:55:07 21° WNW
IRS-P3 4.3 01:45:09 10° NNE 01:50:28 63° ESE 01:51:04 59° SE
Timation 1 Rocket 4.3 01:45:12 10° NNW 01:51:14 81° ENE 01:57:15 10° SE
Cosmos 1470 Rocket 4.2 01:47:18 10° N 01:50:51 52° NNE 01:50:51 52° NNE
Cosmos 1992 Rocket 4.5 01:54:52 50° NW 01:54:52 50° NW 01:59:23 10° NNE
CZ-4C R/B 4.3 01:52:07 10° NW 01:57:32 29° N 02:03:51 10° ENE
Cosmos 1821 Rocket 3.8 01:52:25 10° N 01:58:47 83° W 02:00:05 59° S
CZ-4B R/B 3.5 01:53:52 10° NNE 01:58:43 76° NW 01:58:43 76° NW
Cosmos 1697 Rocket 2.6 02:01:35 71° S 02:02:09 80° ESE 02:07:48 10° NNE
Cosmos 972 Rocket 3.9 02:05:43 69° SE 02:06:01 72° ESE 02:10:58 10° NNE
Cosmos 1980 Rocket 2.8 02:05:36 39° SSE 02:07:15 51° ESE 02:12:44 10° NE
NOSS 2-2 (C) 4.3 02:06:12 54° WNW 02:07:26 67° SW 02:14:56 10° SSE
SL-24 R/B 4.4 02:08:57 57° SSE 02:09:57 84° ENE 02:15:27 10° NNW
Cosmos 1934 Rocket 4.0 02:04:04 10° N 02:10:09 75° E 02:15:16 15° SSE
Cosmos 2263 Rocket 2.7 02:05:42 10° NNW 02:11:18 59° NE 02:16:54 10° SE
Cosmos 1933 4.1 02:13:42 44° NNW 02:13:42 44° NNW 02:16:40 10° N
Meteor 1-26 Rocket 4.2 02:11:25 47° SSE 02:12:56 72° E 02:18:20 10° NNE
Cosmos 1515 Rocket 3.8 02:12:56 59° SE 02:13:25 64° E 02:17:50 10° NNE
Meteor 1-25 Rocket 4.2 02:08:33 10° NNW 02:14:19 66° W 02:14:52 63° SW
Gbstr 26 Del rocket 4.4 02:18:38 29° WNW 02:23:14 79° SSW 02:30:46 10° ESE
SL-16 R/B 4.3 02:19:11 10° SSE 02:23:30 23° ESE 02:27:49 10° NE
Cosmos 1328 Rocket 3.7 02:24:02 61° NW 02:24:02 61° NW 02:28:07 10° N
ADEOS II 2.2 02:19:55 10° N 02:25:01 53° WNW 02:25:24 51° W
Celestis-02/Orion 38 4.4 02:19:57 10° SSE 02:25:12 80° WSW 02:30:23 10° NNW
CZ-3B R/B 1.8 02:25:23 83° NW 02:25:28 84° NNW 02:33:12 10° ENE
Cosmos 1151 Rocket 3.4 02:26:32 50° NW 02:26:32 50° NW 02:30:13 10° N
Cosmos 1500 4.1 02:22:14 10° N 02:26:00 49° ENE 02:28:33 18° SE
USA 305 2.9 02:27:21 71° SSE 02:27:21 71° SSE 02:31:34 10° ENE
Cosmos 1812 4.5 02:26:12 16° SE 02:28:36 30° E 02:32:01 10° NNE
Nadezhda 3 Rocket 3.9 02:26:57 47° SW 02:28:38 67° WNW 02:34:47 10° N
Cosmos 1933 Rocket 3.4 02:24:33 10° NNW 02:28:51 76° W 02:28:51 76° W
Cosmos 2227 4.2 02:23:48 10° NNW 02:29:31 81° ENE 02:35:09 10° SSE
ARIANE 5 R/B 2.4 02:24:51 10° NNE 02:30:00 86° WNW 02:31:23 50° SSW
USA 306 2.8 02:31:23 73° S 02:31:31 74° SSE 02:35:46 10° ENE
Cosmos 1656 4.2 02:32:28 38° WNW 02:33:19 40° NW 02:38:32 10° NNE
IDEFIX/ARIANE 42P 2.6 02:29:08 10° NNE 02:34:27 82° ESE 02:36:51 34° S
CZ-4C R/B 3.6 02:32:38 24° SE 02:34:37 58° ENE 02:38:08 10° N
IRS-1D 4.1 02:29:52 10° N 02:34:53 41° WNW 02:35:24 40° W
Cosmos 1605 Rocket 4.1 02:30:24 10° N 02:36:50 78° E 02:43:15 10° SSE
Cosmos 1535 Rocket 4.4 02:31:50 10° NNW 02:38:14 76° W 02:44:36 10° S
Meteor 1-14 Rocket 4.1 02:32:50 10° NNW 02:38:27 72° W 02:42:39 18° S
ASTEX 1 3.3 02:34:21 10° N 02:39:22 82° W 02:41:21 37° SSW
CZ-2C R/B 4.1 02:35:05 10° NNE 02:39:44 34° E 02:44:26 10° SSE
Cosmos 2228 Rocket 3.4 02:39:36 28° S 02:41:50 64° E 02:46:14 10° NNE
Meteor 1-5 Rocket 4.2 02:38:06 10° N 02:43:26 74° ENE 02:48:49 10° SSE
CZ-2D R/B 3.4 02:42:59 10° NNE 02:47:12 78° WNW 02:48:18 49° SSW
Cosmos 1869 Rocket 3.7 02:43:58 10° N 02:48:20 73° ENE 02:52:39 10° SSE
NOSS 3-4 (A) 4.2 02:42:19 10° NW 02:49:04 63° NE 02:56:34 10° ESE
NOSS 3-4 (C) 4.2 02:42:26 10° NW 02:49:09 63° NE 02:56:40 10° ESE
IRS-1C 4.4 02:46:07 10° N 02:51:15 49° WNW 02:52:48 38° WSW
USA 267 3.2 02:50:11 10° ENE 02:56:46 89° SE 03:00:27 29° WSW
Cosmos 1238 Rocket 4.0 02:51:38 10° NNW 02:58:07 58° W 03:04:07 10° S
CZ-2C R/B 2.6 02:54:48 10° NNE 02:58:36 88° ESE 03:00:12 34° SSW
SJ 16-02 1.2 02:54:20 10° NNW 02:58:44 74° WSW 03:03:07 10° SSE
USA 307 2.8 02:57:59 47° WSW 02:59:10 86° NNW 03:03:27 10° ENE
CZ-2D R/B 3.8 02:56:14 10° NNW 02:59:23 16° NW 03:00:07 16° WNW
Cosmos 1782 3.1 02:59:09 44° W 02:59:28 45° WNW 03:03:23 10° N
NOSS 3-3 (A) 4.2 02:56:40 22° SSW 03:00:27 63° SE 03:07:00 10° NE
NOSS 3-3 (C) 4.2 02:56:50 22° SSW 03:00:35 63° SE 03:07:04 10° NE
Cosmos 44 3.1 02:59:36 37° SW 03:01:22 85° SE 03:06:07 10° NE
PSLV R/B 4.4 02:57:47 10° NNE 03:01:54 49° E 03:05:57 10° S
Meteor 1-4 Rocket 3.4 02:59:37 15° SSE 03:02:18 47° E 03:05:43 10° NNE
USA 308 2.8 03:01:02 44° WSW 03:02:21 84° NNW 03:06:39 10° ENE
Cosmos 389 Rocket 2.7 03:02:26 49° W 03:02:33 49° WNW 03:06:04 10° N
PAYLOAD A 4.4 02:59:33 10° NNE 03:04:13 57° E 03:08:50 10° S
USA 276 2.0 03:04:24 67° WSW 03:04:43 78° S 03:07:57 10° E
Cosmos 2278 3.8 03:02:26 31° SW 03:05:09 64° WNW 03:10:51 10° NNE
Resurs 1-4 Rocket 4.0 03:03:27 10° NNW 03:06:07 14° NW 03:07:00 14° WNW
Cosmos 990 Rocket 3.9 03:01:44 10° NNW 03:06:57 86° WSW 03:12:11 10° SSE
H-2A R/B 2.0 03:05:31 10° S 03:09:52 64° WSW 03:14:20 10° NNW
ATLAS CENTAUR R/B 3.8 02:57:22 10° WNW 03:09:58 60° N 03:14:40 10° E
Lacrosse 5 2.0 03:08:39 31° W 03:11:03 66° NNW 03:16:08 10° ENE
ERBS 3.3 03:11:03 27° S 03:12:18 38° SE 03:15:28 10° ENE
ATLAS 2AS CENTAUR R/B 3.2 03:05:27 10° NW 03:13:07 70° NE 03:20:10 10° SE
Cosmos 2369 4.3 03:11:30 27° W 03:14:04 42° NW 03:19:31 10° NNE
Cosmos 1727 Rocket 4.2 03:08:56 10° S 03:15:15 75° E 03:21:35 10° NNE
ATLAS 5 CENTAUR R/B 3.7 03:12:12 12° NW 03:15:16 21° N 03:19:14 10° NE
Meteor 1-11 Rocket 3.7 03:15:30 10° NNW 03:21:21 85° WSW 03:27:01 10° S
Cosmos 1339 Rocket 4.5 03:15:35 11° SSW 03:21:35 65° WNW 03:27:45 10° N
Landsat 5 3.8 03:18:11 10° S 03:22:34 48° W 03:26:55 10° NNW
ALOS 4.1 03:18:52 10° NNE 03:23:06 33° E 03:27:18 10° SSE
GENESIS II 4.4 03:21:04 23° SSW 03:23:32 75° SE 03:27:34 10° NE
ADEOS Rocket 3.1 03:16:57 10° SSE 03:23:42 90° ENE 03:29:47 10° NNW
CZ-4B R/B 1.9 03:21:33 10° SSE 03:24:40 59° ENE 03:27:54 10° N
Cosmos 1459 Rocket 4.2 03:23:06 10° N 03:29:14 73° E 03:35:16 10° SSE
MSX 4.0 03:27:03 10° N 03:32:39 54° WNW 03:37:58 11° SW
ERS-2 2.1 03:29:05 10° S 03:32:41 56° WSW 03:36:19 10° NNW
USA 234 3.7 03:27:56 10° SSE 03:33:56 38° SW 03:39:57 10° WNW
Cosmos 1484 Rocket 4.3 03:32:05 10° NNE 03:35:52 40° E 03:39:40 10° S
Meteor 1-27 Rocket 4.0 03:30:15 10° S 03:36:11 79° E 03:42:06 10° NNE
COSMO-SKYMED 1 4.3 03:32:22 10° SE 03:36:22 37° ENE 03:40:23 10° N
Cosmos 1689 Rocket 4.0 03:36:01 10° SE 03:38:45 34° ENE 03:41:30 10° N
Cosmos 2360 Rocket 3.6 03:36:02 10° S 03:41:14 39° ESE 03:46:29 10° NE
Cosmos 1536 2.7 03:37:20 10° NNW 03:41:25 74° W 03:45:28 10° S
Cosmos 1898 Rocket 3.6 03:36:47 10° NNW 03:41:52 51° WSW 03:46:57 10° S
X-37B 2.2 03:42:02 18° SW 03:42:57 21° SSW 03:45:26 10° SE
Cosmos 1697 Rocket 3.9 03:43:20 15° W 03:46:46 26° NW 03:51:26 10° NNE
Meteor 1-31 Rocket 4.1 03:43:43 10° NNE 03:47:23 42° E 03:51:02 10° S
CZ-4C R/B 3.7 03:40:56 10° NW 03:47:33 53° NE 03:55:20 10° ESE
FENGYUN 3A 4.4 03:42:37 10° NNE 03:47:57 57° E 03:53:15 10° S
deb Chang Zheng 4 3.9 03:45:18 10° NNE 03:49:38 69° ESE 03:53:52 10° S
Cosmos 372 Rocket 4.2 03:44:33 10° NNW 03:49:45 75° ENE 03:54:52 10° SSE
Cosmos 1980 Rocket 3.0 03:47:24 16° WSW 03:51:29 36° NW 03:56:42 10° NNE
Cosmos 1437 Rocket 4.4 03:50:52 10° SSE 03:54:22 37° E 03:57:56 10° NNE
Cosmos 2278 Rocket 4.4 03:50:07 10° NNW 03:54:52 26° NE 03:59:34 10° E
Cosmos 2263 Rocket 3.0 03:50:09 10° NW 03:54:53 28° WSW 03:59:38 10° SSW
Cosmos 921 Rocket 3.7 03:52:49 14° WSW 03:55:57 35° WNW 03:59:50 10° N
Cosmos 1544 4.4 03:52:28 10° N 03:55:57 44° ENE 03:59:24 10° SSE
Cosmos 1844 4.0 03:51:20 10° NNW 03:56:56 70° ENE 04:02:27 10° SE
Cosmos 2322 Rocket 2.3 03:52:12 10° SSW 03:57:52 86° ESE 04:03:38 10° NNE
USA 32 4.2 03:54:08 10° NNW 03:59:11 48° W 04:04:13 10° SSW
Cosmos 1844 Rocket 2.8 03:55:39 10° NNW 04:01:20 87° ENE 04:07:00 10° SSE
Cosmos 2173 Rocket 4.0 03:55:38 10° NNW 04:01:55 68° W 04:08:13 10° S
ADEOS II 4.1 04:02:03 10° NNW 04:03:37 11° NW 04:05:11 10° WNW
Cosmos 1812 3.8 04:01:20 11° SW 04:04:25 26° WNW 04:07:41 10° NNW
Cosmos 1707 Rocket 3.7 04:00:31 10° SSW 04:04:44 51° WNW 04:09:00 10° N
COSMOS 2455 4.5 03:59:15 10° NNW 04:04:46 35° NE 04:10:15 10° E
Cosmos 1666 3.6 04:03:45 10° NNW 04:07:02 27° W 04:10:17 10° SSW
SL-16 R/B 2.2 04:01:24 10° SW 04:07:03 72° WNW 04:12:46 10° NNE
USA 305 3.3 04:03:31 11° W 04:07:30 58° N 04:11:42 10° ENE
Cosmos 1937 Rocket 3.8 04:02:51 10° NW 04:07:42 42° WSW 04:12:30 10° S
ARIANE 5 R/B 4.1 04:05:11 10° NNW 04:08:23 17° NW 04:11:33 10° W
ADEOS 3.6 04:04:13 10° NNE 04:09:27 81° WNW 04:14:40 10° SSW
Cosmos 2150 Rocket 4.4 04:05:16 10° NNW 04:10:46 73° ENE 04:16:11 10° SSE
USA 306 3.3 04:07:32 10° W 04:11:42 57° N 04:15:55 10° ENE
IDEFIX/ARIANE 42P 4.0 04:09:43 10° N 04:13:27 20° NW 04:17:10 10° W
Cosmos 1125 Rocket 4.4 04:09:11 10° NNW 04:14:25 56° ENE 04:19:35 10° SE
CZ-2C R/B 3.0 04:13:16 10° N 04:18:02 41° WNW 04:22:51 10° SW
Cosmos 1814 Rocket 4.3 04:13:03 10° SSW 04:18:15 75° ESE 04:23:33 10° NNE
Cosmos 1733 Rocket 3.4 04:15:02 10° NNW 04:19:09 42° W 04:23:13 10° SSW
Cosmos 841 Rocket 3.5 04:14:44 10° SSW 04:19:59 87° WNW 04:25:18 10° NNE
Cosmos 2061 Rocket 4.1 04:14:40 10° NNW 04:21:05 73° W 04:27:30 10° S
SAR-Lupe-4 4.2 04:18:23 10° SSW 04:21:42 34° W 04:25:02 10° NNW
SKYMED 2 3.5 04:19:57 10° SSE 04:24:18 80° WSW 04:28:41 10° NNW
Cosmos 44 Rocket 3.7 04:20:07 10° SSW 04:24:49 66° SE 04:29:41 10° NE
